Location: *
(46.3500°N, 10.9000°E)
Time: 08:05:09
(UTC+00:00)

Transit 2A - All Passes

Search period start: 20 April 2021 00:00
Search period end: 30 April 2021 00:00
Orbit: 602 x 957 km, 66.7° (Epoch: 19 April)

Date Brightness Start Highest point End Pass type
(mag) Time Alt. Az. Time Alt. Az. Time Alt. Az.
20 Apr - 06:08:23 10° SSW 06:13:03 55° ESE 06:17:25 10° NE daylight
20 Apr - 07:52:45 10° W 07:56:27 23° NW 08:00:01 10° N daylight
20 Apr - 13:09:43 10° N 13:12:23 16° NE 13:15:06 10° ENE daylight
20 Apr - 14:51:43 10° NNW 14:56:10 85° ENE 15:00:52 10° SE daylight
20 Apr - 16:36:57 10° W 16:38:41 12° WSW 16:40:28 10° SW daylight
21 Apr - 05:34:34 10° S 05:38:58 36° ESE 05:43:04 10° NE daylight
21 Apr - 07:17:57 10° WSW 07:22:06 31° NW 07:26:05 10° NNE daylight
21 Apr - 12:36:09 10° N 12:37:54 12° NNE 12:39:39 10° NE daylight
21 Apr - 14:17:36 10° NNW 14:21:57 58° NE 14:26:34 10° SE daylight
21 Apr - 16:01:37 10° WNW 16:04:43 18° WSW 16:07:55 10° SSW daylight
22 Apr - 05:01:02 10° SSE 05:04:53 25° ESE 05:08:33 10° ENE daylight
22 Apr - 06:43:20 10° WSW 06:47:49 44° NW 06:52:04 10° NNE daylight
22 Apr - 13:43:32 10° NNW 13:47:42 40° NE 13:52:05 10° ESE daylight
22 Apr - 15:26:55 10° NW 15:30:41 27° WSW 15:34:40 10° S daylight
23 Apr - 04:27:53 10° SSE 04:30:52 17° ESE 04:33:45 10° ENE daylight
23 Apr - 06:08:54 10° SW 06:13:34 63° NW 06:17:59 10° NNE daylight
23 Apr - 07:55:30 10° WNW 07:57:34 13° NNW 07:59:36 10° N daylight
23 Apr - 13:09:32 10° NNW 13:13:24 29° NE 13:17:26 10° ESE daylight
23 Apr - 14:52:26 10° NW 14:56:36 40° WSW 15:01:03 10° S daylight
24 Apr - 03:55:46 10° ESE 03:56:54 11° ESE 03:58:02 10° E daylight
24 Apr - 05:34:39 10° SSW 05:39:23 88° ESE 05:43:50 10° NE daylight
24 Apr - 07:20:10 10° WNW 07:23:05 17° NW 07:25:57 10° N daylight
24 Apr - 12:35:36 10° N 12:39:02 22° NE 12:42:36 10° E daylight
24 Apr - 14:18:06 10° NW 14:22:30 60° WSW 14:27:11 10° SSE daylight
25 Apr - 05:00:35 10° SSW 05:05:14 59° ESE 05:09:36 10° NE daylight
25 Apr - 06:45:07 10° W 06:48:41 22° NW 06:52:07 10° N daylight
25 Apr - 12:01:47 10° N 12:04:38 16° NE 12:07:32 10° ENE daylight
25 Apr - 13:43:53 10° NNW 13:48:20 89° W 13:53:06 10° SSE daylight
25 Apr - 15:29:29 10° W 15:30:50 11° WSW 15:32:13 10° WSW daylight
26 Apr - 04:26:44 10° S 04:31:08 39° ESE 04:35:16 10° NE daylight
26 Apr - 06:10:17 10° WSW 06:14:19 29° NW 06:18:11 10° NNE daylight
26 Apr - 11:28:09 10° N 11:30:09 13° NNE 11:32:11 10° ENE daylight
26 Apr - 13:09:44 10° NNW 13:14:09 62° NE 13:18:50 10° SE daylight
26 Apr - 14:53:55 10° WNW 14:56:51 17° WSW 14:59:57 10° SSW daylight
27 Apr - 03:53:08 10° S 03:57:03 26° ESE 04:00:46 10° NE daylight
27 Apr - 05:35:38 10° WSW 05:40:01 40° NW 05:44:11 10° NNE daylight
27 Apr - 12:35:40 10° NNW 12:39:54 43° NE 12:44:24 10° ESE daylight
27 Apr - 14:19:08 10° WNW 14:22:50 25° WSW 14:26:46 10° SSW daylight
28 Apr - 03:19:53 10° SSE 03:23:01 18° ESE 03:26:02 10° ENE visible
28 Apr - 05:01:10 10° SW 05:05:45 59° NW 05:10:06 10° NNE daylight
28 Apr - 06:48:01 10° NW 06:49:49 12° NNW 06:51:35 10° N daylight
28 Apr - 12:01:39 10° NNW 12:05:37 31° NE 12:09:46 10° ESE daylight
28 Apr - 13:44:37 10° NW 13:48:47 37° WSW 13:53:12 10° S daylight
29 Apr - 02:47:27 10° SE 02:49:02 12° ESE 02:50:37 10° E visible
29 Apr - 04:26:52 10° SSW 04:31:33 86° WNW 04:35:58 10° NNE daylight
29 Apr - 06:12:35 10° WNW 06:15:20 16° NW 06:18:01 10° N daylight
29 Apr - 11:27:42 10° N 11:31:16 23° NE 11:34:58 10° E daylight
29 Apr - 13:10:17 10° NW 13:14:40 56° WSW 13:19:23 10° SSE daylight
